Location: Beddau
(51.5575°N, 3.3561°W)
Time: 12:39:47
(UTC+00:00)

Cosmos 1844 - Pass Details

Date: 03 March 2021
Orbit: 822 x 868 km, 70.9° (Epoch: 16 April)

Event Time Altitude Azimuth Distance (km) Brightness Sun altitude
Rises 18:31:24 0° 330° (NNW) 3,464 7.3 -6.1°
Reaches altitude 10° 18:34:00 10° 336° (NNW) 2,521 6.5 -6.5°
Maximum altitude 18:39:35 47° 50° (NE) 1,140 4.1 -7.3°
Drops below altitude 10° 18:45:05 10° 124° (SE) 2,486 5.6 -8.2°
Enters shadow 18:46:58 - 129° (SE) 3,168 6.2 -8.5°
